When you browse on this site, cookies collect data to enhance your experience and personalize the content and advertising you see.
Visit our Privacy Policy to learn more. By continuing to use the site, you agree to this use of cookies and data.
  • In Hungary
  • List of Countries
  • For 7 days
  • Water Temperature
  • Satellite Maps
  • Weather Map
  • News
  • Weather Widgets
  • user-avatar
    Login

    Hourly Weather Hodmezovasarhely

    Today, 16 June, Sunday

    Time Temperature Precipitation Wind Pressure Humidity
    00:00 +25°C° 0 mm 2 mps 752 mmHg 73%
    01:00 +24°C° 0 mm 2 mps 752 mmHg 75%
    02:00 +24°C° 0 mm 2 mps 751 mmHg 75%
    03:00 +23°C° 0 mm 2 mps 751 mmHg 76%
    04:00 +23°C° 0 mm 2 mps 751 mmHg 76%
    05:00 +24°C° 0 mm 2 mps 751 mmHg 73%
    06:00 +26°C° 0 mm 2 mps 752 mmHg 70%
    07:00 +27°C° 0 mm 2 mps 752 mmHg 67%
    08:00 +28°C° 0 mm 2 mps 752 mmHg 63%
    09:00 +30°C° 0 mm 2 mps 752 mmHg 59%
    10:00 +31°C° 0 mm 2 mps 752 mmHg 54%
    11:00 +32°C° 0 mm 1 mps 752 mmHg 52%
    12:00 +33°C° 0 mm 1 mps 752 mmHg 50%
    13:00 +33°C° 0 mm 1 mps 752 mmHg 47%
    14:00 +33°C° 0 mm 1 mps 751 mmHg 47%
    15:00 +33°C° 0 mm 1 mps 751 mmHg 48%
    16:00 +34°C° 0 mm 2 mps 750 mmHg 48%
    17:00 +32°C° 0 mm 2 mps 751 mmHg 54%
    18:00 +30°C° 0 mm 1 mps 751 mmHg 60%
    19:00 +29°C° 0 mm 1 mps 751 mmHg 66%
    20:00 +27°C° 0.8 mm 2 mps 752 mmHg 73%
    21:00 +25°C° 0.8 mm 3 mps 752 mmHg 80%
    22:00 +23°C° 0.8 mm 4 mps 752 mmHg 87%
    23:00 +22°C° 0.9 mm 4 mps 752 mmHg 88%

    Tomorrow, 17 June, Monday

    Time Temperature Precipitation Wind Pressure Humidity
    00:00 +22°C° 0.9 mm 3 mps 752 mmHg 90%
    01:00 +21°C° 0.9 mm 3 mps 752 mmHg 91%
    02:00 +21°C° 0.1 mm 3 mps 752 mmHg 92%
    03:00 +20°C° 0.1 mm 3 mps 752 mmHg 93%
    04:00 +20°C° 0.1 mm 4 mps 752 mmHg 93%
    05:00 +20°C° 0.1 mm 4 mps 752 mmHg 91%
    06:00 +21°C° 0.1 mm 5 mps 753 mmHg 88%
    07:00 +21°C° 0.1 mm 5 mps 753 mmHg 85%
    08:00 +22°C° 0.6 mm 5 mps 753 mmHg 84%
    09:00 +23°C° 0.6 mm 5 mps 753 mmHg 83%
    10:00 +23°C° 0.6 mm 4 mps 754 mmHg 82%
    11:00 +25°C° 0 mm 4 mps 754 mmHg 80%
    12:00 +26°C° 0 mm 4 mps 753 mmHg 78%
    13:00 +27°C° 0 mm 4 mps 753 mmHg 75%
    14:00 +27°C° 0.9 mm 4 mps 753 mmHg 77%
    15:00 +26°C° 0.9 mm 4 mps 753 mmHg 79%
    16:00 +26°C° 0.9 mm 4 mps 753 mmHg 81%
    17:00 +25°C° 0.7 mm 3 mps 753 mmHg 83%
    18:00 +24°C° 0.7 mm 2 mps 753 mmHg 85%
    19:00 +23°C° 0.7 mm 1 mps 752 mmHg 86%
    20:00 +23°C° 0.1 mm 1 mps 753 mmHg 87%
    21:00 +22°C° 0.1 mm 1 mps 753 mmHg 88%
    22:00 +21°C° 0.1 mm 2 mps 753 mmHg 88%
    23:00 +20°C° 0.2 mm 2 mps 753 mmHg 91%

    Day after tomorrow, 18 June, Tuesday

    Time Temperature Precipitation Wind Pressure Humidity
    00:00 +20°C° 0.2 mm 2 mps 753 mmHg 93%
    01:00 +20°C° 0.2 mm 2 mps 753 mmHg 95%
    02:00 +20°C° 0 mm 2 mps 753 mmHg 95%
    03:00 +20°C° 0 mm 2 mps 753 mmHg 95%
    04:00 +20°C° 0 mm 1 mps 753 mmHg 95%
    05:00 +22°C° 0 mm 1 mps 753 mmHg 91%
    06:00 +23°C° 0 mm 1 mps 753 mmHg 87%
    07:00 +24°C° 0 mm 1 mps 754 mmHg 82%
    08:00 +26°C° 0 mm 1 mps 754 mmHg 76%
    09:00 +27°C° 0 mm 1 mps 754 mmHg 69%
    10:00 +29°C° 0 mm 1 mps 754 mmHg 62%
    11:00 +29°C° 1.1 mm 1 mps 753 mmHg 60%
    12:00 +30°C° 1.1 mm 2 mps 753 mmHg 58%
    13:00 +30°C° 1.1 mm 2 mps 753 mmHg 57%
    14:00 +30°C° 0.9 mm 1 mps 752 mmHg 57%
    15:00 +30°C° 0.9 mm 1 mps 752 mmHg 57%
    16:00 +31°C° 0.9 mm 1 mps 752 mmHg 58%
    17:00 +29°C° 0.3 mm 1 mps 752 mmHg 63%
    18:00 +28°C° 0.3 mm 1 mps 752 mmHg 68%
    19:00 +27°C° 0.3 mm 1 mps 752 mmHg 73%
    20:00 +26°C° 1.7 mm 1 mps 752 mmHg 77%
    21:00 +24°C° 1.7 mm 1 mps 752 mmHg 81%
    22:00 +23°C° 1.7 mm 1 mps 752 mmHg 85%
    23:00 +23°C° 0.1 mm 1 mps 752 mmHg 86%

    19 June, Wednesday

    Time Temperature Precipitation Wind Pressure Humidity
    00:00 +23°C° 0.1 mm 1 mps 752 mmHg 86%
    01:00 +22°C° 0.1 mm 1 mps 752 mmHg 87%
    02:00 +22°C° 0.3 mm 1 mps 752 mmHg 88%
    03:00 +22°C° 0.3 mm 1 mps 752 mmHg 89%
    04:00 +22°C° 0.3 mm 1 mps 752 mmHg 90%
    05:00 +23°C° 0.1 mm 2 mps 752 mmHg 87%
    06:00 +24°C° 0.1 mm 2 mps 753 mmHg 84%
    07:00 +25°C° 0.1 mm 3 mps 753 mmHg 81%
    08:00 +26°C° 0 mm 4 mps 753 mmHg 75%
    09:00 +28°C° 0 mm 4 mps 753 mmHg 70%
    10:00 +29°C° 0 mm 5 mps 753 mmHg 64%
    11:00 +30°C° 0 mm 5 mps 752 mmHg 62%
    12:00 +30°C° 0 mm 4 mps 752 mmHg 59%
    13:00 +32°C° 0 mm 4 mps 752 mmHg 57%
    14:00 +32°C° 0.1 mm 4 mps 751 mmHg 57%
    15:00 +32°C° 0.1 mm 4 mps 751 mmHg 57%
    16:00 +31°C° 0.1 mm 3 mps 751 mmHg 56%
    17:00 +29°C° 0 mm 3 mps 751 mmHg 61%
    18:00 +28°C° 0 mm 2 mps 751 mmHg 66%
    19:00 +27°C° 0 mm 2 mps 751 mmHg 70%
    20:00 +26°C° 0 mm 2 mps 751 mmHg 71%
    21:00 +25°C° 0 mm 2 mps 751 mmHg 72%
    22:00 +24°C° 0 mm 2 mps 751 mmHg 74%
    23:00 +23°C° 0 mm 2 mps 751 mmHg 76%

    20 June, Thursday

    Time Temperature Precipitation Wind Pressure Humidity
    00:00 +23°C° 0 mm 2 mps 751 mmHg 78%
    01:00 +21°C° 0 mm 2 mps 751 mmHg 80%
    02:00 +21°C° 0 mm 3 mps 751 mmHg 79%
    03:00 +20°C° 0 mm 3 mps 751 mmHg 78%
    04:00 +20°C° 0 mm 3 mps 751 mmHg 76%
    05:00 +21°C° 0 mm 3 mps 751 mmHg 75%
    06:00 +22°C° 0 mm 3 mps 752 mmHg 74%
    07:00 +25°C° 0 mm 3 mps 752 mmHg 73%
    08:00 +26°C° 0 mm 4 mps 752 mmHg 70%
    09:00 +27°C° 0 mm 4 mps 752 mmHg 67%
    10:00 +29°C° 0 mm 4 mps 752 mmHg 64%
    11:00 +29°C° 0 mm 4 mps 752 mmHg 60%
    12:00 +30°C° 0 mm 4 mps 752 mmHg 56%
    13:00 +31°C° 0 mm 3 mps 751 mmHg 52%
    14:00 +31°C° 0 mm 3 mps 751 mmHg 52%
    15:00 +31°C° 0 mm 2 mps 751 mmHg 51%
    16:00 +31°C° 0 mm 2 mps 751 mmHg 51%
    17:00 +30°C° 0 mm 2 mps 751 mmHg 55%
    18:00 +28°C° 0 mm 1 mps 751 mmHg 60%
    19:00 +27°C° 0 mm 1 mps 751 mmHg 64%
    20:00 +26°C° 0 mm 1 mps 752 mmHg 66%
    21:00 +25°C° 0 mm 1 mps 752 mmHg 67%
    22:00 +25°C° 0 mm 2 mps 752 mmHg 68%
    23:00 +24°C° 0 mm 1 mps 752 mmHg 71%

    21 June, Friday

    Time Temperature Precipitation Wind Pressure Humidity
    00:00 +24°C° 0 mm 1 mps 752 mmHg 74%
    01:00 +23°C° 0 mm 1 mps 752 mmHg 77%
    02:00 +23°C° 0.1 mm 1 mps 752 mmHg 79%
    03:00 +21°C° 0.1 mm 2 mps 752 mmHg 81%
    04:00 +21°C° 0.1 mm 2 mps 752 mmHg 82%
    05:00 +23°C° 0.1 mm 2 mps 752 mmHg 80%
    06:00 +25°C° 0.1 mm 2 mps 753 mmHg 78%
    07:00 +26°C° 0.1 mm 2 mps 753 mmHg 76%
    08:00 +27°C° 0.2 mm 3 mps 753 mmHg 72%
    09:00 +29°C° 0.2 mm 3 mps 753 mmHg 67%
    10:00 +30°C° 0.2 mm 3 mps 753 mmHg 63%
    11:00 +31°C° 0.5 mm 3 mps 753 mmHg 60%
    12:00 +31°C° 0.5 mm 3 mps 752 mmHg 58%
    13:00 +33°C° 0.5 mm 3 mps 752 mmHg 55%
    14:00 +33°C° 0.1 mm 3 mps 752 mmHg 57%
    15:00 +33°C° 0.1 mm 3 mps 752 mmHg 58%
    16:00 +33°C° 0.1 mm 3 mps 751 mmHg 59%
    17:00 +30°C° 0.2 mm 2 mps 751 mmHg 64%
    18:00 +29°C° 0.2 mm 2 mps 751 mmHg 68%
    19:00 +28°C° 0.2 mm 1 mps 751 mmHg 72%
    20:00 +27°C° 0.2 mm 1 mps 751 mmHg 74%
    21:00 +26°C° 0.2 mm 1 mps 752 mmHg 75%
    22:00 +25°C° 0.2 mm 1 mps 752 mmHg 77%
    23:00 +24°C° 0.3 mm 1 mps 752 mmHg 79%
    Show more